EIN69Y EDDL-EIDW

Flight info

Callsign EIN69Y
Flight time 1h 27m
Altitude 38000
Route SONEB6Z SONEB P64 TENLI L980 FLEVO L602 SPY DCT RAVLO Y70 OTBED L60 PENIL UL28 LELDO M145 BAGSO BAGSO4L
Aircraft A320/M-SDE3FGHIRWY/LB1

Departure

Time 2026-05-07 07:21
Airport Düsseldorf Airport (EDDL)

Arrival

Time 2026-05-07 08:48
Airport Dublin Airport (EIDW)
Time Latitude Longitude Altitude Speed Heading
2026-05-07 06:50 51.27629 6.76371 154 ft 0 kts 340°
2026-05-07 07:10 51.27626 6.76373 154 ft 2 kts 343°
2026-05-07 07:10 51.27611 6.76377 154 ft 2 kts 347°
2026-05-07 07:10 51.27597 6.76384 154 ft 2 kts 346°
2026-05-07 07:11 51.27582 6.76389 154 ft 2 kts 346°
2026-05-07 07:11 51.27568 6.76394 154 ft 1 kts 346°
2026-05-07 07:11 51.27564 6.76396 154 ft 0 kts 323°
2026-05-07 07:11 51.27560 6.76402 154 ft 0 kts 266°
2026-05-07 07:12 51.27562 6.76409 154 ft 1 kts 241°
2026-05-07 07:12 51.27564 6.76415 154 ft 0 kts 248°
2026-05-07 07:13 51.27563 6.76413 154 ft 0 kts 248°
2026-05-07 07:14 51.27556 6.76385 154 ft 4 kts 249°
2026-05-07 07:14 51.27540 6.76319 154 ft 8 kts 249°
2026-05-07 07:14 51.27517 6.76214 154 ft 11 kts 257°
2026-05-07 07:14 51.27558 6.76094 154 ft 14 kts 331°
2026-05-07 07:15 51.27650 6.76038 154 ft 14 kts 356°
2026-05-07 07:15 51.27746 6.76042 154 ft 13 kts
2026-05-07 07:15 51.27839 6.76046 154 ft 13 kts
2026-05-07 07:15 51.27931 6.76049 154 ft 13 kts
2026-05-07 07:16 51.28031 6.76047 154 ft 14 kts 359°
2026-05-07 07:16 51.28134 6.76045 154 ft 15 kts 31°
2026-05-07 07:16 51.28204 6.76179 154 ft 16 kts 53°
2026-05-07 07:16 51.28275 6.76327 154 ft 16 kts 53°
2026-05-07 07:17 51.28348 6.76481 154 ft 17 kts 53°
2026-05-07 07:17 51.28424 6.76641 154 ft 18 kts 53°
2026-05-07 07:17 51.28501 6.76802 154 ft 18 kts 53°
2026-05-07 07:17 51.28581 6.76970 154 ft 19 kts 53°
2026-05-07 07:18 51.28663 6.77143 154 ft 19 kts 53°
2026-05-07 07:18 51.28746 6.77317 154 ft 19 kts 52°
2026-05-07 07:18 51.28832 6.77495 154 ft 19 kts 52°
2026-05-07 07:18 51.28916 6.77672 154 ft 20 kts 53°
2026-05-07 07:19 51.29002 6.77852 154 ft 20 kts 53°
2026-05-07 07:19 51.29089 6.78035 154 ft 20 kts 53°
2026-05-07 07:19 51.29176 6.78218 153 ft 20 kts 52°
2026-05-07 07:19 51.29285 6.78364 153 ft 20 kts 22°
2026-05-07 07:20 51.29407 6.78462 153 ft 18 kts 13°
2026-05-07 07:20 51.29473 6.78370 153 ft 14 kts 239°
2026-05-07 07:20 51.29402 6.78224 154 ft 20 kts 233°
2026-05-07 07:20 51.29199 6.77797 154 ft 86 kts 233°
2026-05-07 07:21 51.28664 6.76668 170 ft 162 kts 232°
2026-05-07 07:21 51.27940 6.75107 393 ft 180 kts 235°
2026-05-07 07:21 51.27185 6.73432 827 ft 190 kts 236°
2026-05-07 07:21 51.26510 6.71491 1262 ft 215 kts 259°
2026-05-07 07:22 51.26699 6.69069 1897 ft 232 kts 301°
2026-05-07 07:22 51.27850 6.67485 3033 ft 221 kts 341°
2026-05-07 07:22 51.29330 6.67334 4049 ft 219 kts
2026-05-07 07:22 51.30836 6.67899 4764 ft 233 kts 13°
2026-05-07 07:23 51.32467 6.68490 5405 ft 249 kts
2026-05-07 07:23 51.34197 6.68909 6227 ft 257 kts
2026-05-07 07:23 51.35975 6.69203 7141 ft 259 kts
2026-05-07 07:23 51.37766 6.69428 8025 ft 261 kts
2026-05-07 07:24 51.39591 6.69541 8896 ft 264 kts
2026-05-07 07:24 51.41428 6.69559 9710 ft 267 kts
2026-05-07 07:24 51.43284 6.69564 10521 ft 271 kts
2026-05-07 07:24 51.45231 6.69575 11074 ft 286 kts
2026-05-07 07:25 51.49345 6.69595 12605 ft 297 kts
2026-05-07 07:25 51.51413 6.69603 13372 ft 301 kts 360°
2026-05-07 07:25 51.53543 6.69610 14124 ft 306 kts 359°
2026-05-07 07:26 51.55691 6.69616 14850 ft 310 kts 359°
2026-05-07 07:26 51.57881 6.69622 15562 ft 314 kts 359°
2026-05-07 07:26 51.60089 6.69627 16251 ft 318 kts 359°
2026-05-07 07:26 51.62298 6.69718 16922 ft 322 kts
2026-05-07 07:27 51.64545 6.70031 17585 ft 326 kts
2026-05-07 07:27 51.66824 6.70408 18238 ft 330 kts
2026-05-07 07:27 51.69147 6.70804 18893 ft 333 kts
2026-05-07 07:27 51.71491 6.71203 19520 ft 336 kts
2026-05-07 07:28 51.73839 6.71600 20121 ft 339 kts
2026-05-07 07:28 51.76210 6.72000 20706 ft 343 kts
2026-05-07 07:28 51.78613 6.72404 21278 ft 347 kts
2026-05-07 07:28 51.80996 6.72806 21830 ft 350 kts
2026-05-07 07:29 51.83442 6.73216 22381 ft 353 kts
2026-05-07 07:29 51.85910 6.73630 22927 ft 356 kts
2026-05-07 07:29 51.88379 6.74045 23451 ft 359 kts
2026-05-07 07:29 51.90868 6.74464 23965 ft 362 kts
2026-05-07 07:30 51.93370 6.74887 24468 ft 365 kts
2026-05-07 07:30 51.95923 6.75319 24969 ft 368 kts
2026-05-07 07:30 51.98461 6.75733 25474 ft 371 kts
2026-05-07 07:30 52.01033 6.75355 25933 ft 371 kts 341°
2026-05-07 07:31 52.03307 6.73506 26415 ft 370 kts 321°
2026-05-07 07:31 52.05090 6.70440 26910 ft 369 kts 305°
2026-05-07 07:31 52.06555 6.67033 27391 ft 372 kts 304°
2026-05-07 07:31 52.08029 6.63565 27851 ft 375 kts 304°
2026-05-07 07:32 52.09541 6.60030 28320 ft 378 kts 304°
2026-05-07 07:32 52.11037 6.56554 28757 ft 381 kts 304°
2026-05-07 07:32 52.12569 6.53007 29054 ft 383 kts 304°
2026-05-07 07:32 52.14093 6.49486 29340 ft 385 kts 304°
2026-05-07 07:33 52.15647 6.45891 30359 ft 388 kts 305°
2026-05-07 07:33 52.17189 6.42324 30855 ft 390 kts 305°
2026-05-07 07:33 52.18749 6.38711 31183 ft 393 kts 305°
2026-05-07 07:33 52.20326 6.35053 31510 ft 395 kts 305°
2026-05-07 07:34 52.21892 6.31342 31833 ft 397 kts 302°
2026-05-07 07:34 52.23322 6.27531 32139 ft 399 kts 299°
2026-05-07 07:34 52.24623 6.23541 32474 ft 401 kts 295°
2026-05-07 07:34 52.25783 6.19385 32784 ft 403 kts 292°
2026-05-07 07:35 52.26794 6.15092 33084 ft 405 kts 289°
2026-05-07 07:35 52.27742 6.10737 33381 ft 407 kts 289°
2026-05-07 07:35 52.28675 6.06397 33656 ft 409 kts 289°
2026-05-07 07:35 52.29619 6.02002 33919 ft 411 kts 289°
2026-05-07 07:36 52.30564 5.97596 34181 ft 413 kts 289°
2026-05-07 07:36 52.31512 5.93182 34435 ft 415 kts 289°
2026-05-07 07:36 52.32458 5.88762 34679 ft 417 kts 289°
2026-05-07 07:36 52.33414 5.84291 34920 ft 419 kts 289°
2026-05-07 07:37 52.34379 5.79770 35160 ft 421 kts 289°
2026-05-07 07:37 52.35341 5.75258 35385 ft 423 kts 289°
2026-05-07 07:37 52.36306 5.70717 35582 ft 424 kts 289°
2026-05-07 07:37 52.37264 5.66198 35776 ft 426 kts 289°
2026-05-07 07:38 52.38223 5.61663 35966 ft 427 kts 289°
2026-05-07 07:38 52.39198 5.57044 36143 ft 429 kts 289°
2026-05-07 07:38 52.40176 5.52391 36265 ft 430 kts 289°
2026-05-07 07:38 52.41143 5.47784 36394 ft 430 kts 289°
2026-05-07 07:39 52.42126 5.43087 36532 ft 431 kts 289°
2026-05-07 07:39 52.43096 5.38436 36653 ft 431 kts 289°
2026-05-07 07:39 52.44068 5.33774 36772 ft 432 kts 288°
2026-05-07 07:39 52.45039 5.29107 36897 ft 432 kts 288°
2026-05-07 07:40 52.45998 5.24487 37020 ft 432 kts 288°
2026-05-07 07:40 52.46962 5.19832 37136 ft 433 kts 288°
2026-05-07 07:40 52.47931 5.15137 37240 ft 433 kts 288°
2026-05-07 07:41 52.49848 5.05823 37417 ft 435 kts 288°
2026-05-07 07:41 52.51774 4.96415 37599 ft 436 kts 288°
2026-05-07 07:42 52.53685 4.87025 37780 ft 437 kts 288°
2026-05-07 07:42 52.55778 4.77657 37948 ft 439 kts 290°
2026-05-07 07:43 52.57936 4.68241 38025 ft 440 kts 290°
2026-05-07 07:43 52.60076 4.58857 38031 ft 440 kts 290°
2026-05-07 07:44 52.62206 4.49470 38036 ft 440 kts 290°
2026-05-07 07:44 52.64330 4.40067 38045 ft 440 kts 290°
2026-05-07 07:45 52.66451 4.30623 38050 ft 440 kts 289°
2026-05-07 07:45 52.68550 4.21237 38054 ft 440 kts 289°
2026-05-07 07:46 52.70644 4.11831 38057 ft 440 kts 289°
2026-05-07 07:46 52.72734 4.02400 38060 ft 439 kts 289°
2026-05-07 07:47 52.74818 3.92952 38064 ft 439 kts 289°
2026-05-07 07:47 52.76892 3.83510 38076 ft 439 kts 289°
2026-05-07 07:48 52.78959 3.74055 38084 ft 439 kts 289°
2026-05-07 07:48 52.81024 3.64563 38082 ft 439 kts 289°
2026-05-07 07:49 52.83077 3.55088 38080 ft 439 kts 289°
2026-05-07 07:49 52.85111 3.45657 38082 ft 439 kts 289°
2026-05-07 07:50 52.87162 3.36108 38086 ft 440 kts 289°
2026-05-07 07:50 52.89204 3.26547 38090 ft 440 kts 289°
2026-05-07 07:51 52.91217 3.16887 38092 ft 439 kts 287°
2026-05-07 07:51 52.92744 3.06972 38093 ft 439 kts 282°
2026-05-07 07:52 52.94062 2.96964 38093 ft 440 kts 282°
2026-05-07 07:52 52.95401 2.86737 38094 ft 440 kts 282°
2026-05-07 07:53 52.96750 2.76372 38094 ft 440 kts 282°
2026-05-07 07:53 52.98061 2.66236 38095 ft 440 kts 282°
2026-05-07 07:54 52.99351 2.56183 38094 ft 440 kts 282°
2026-05-07 07:54 53.00642 2.46058 38093 ft 440 kts 282°
2026-05-07 07:55 53.01892 2.36180 38093 ft 440 kts 282°
2026-05-07 07:55 53.03142 2.26232 38092 ft 440 kts 282°
2026-05-07 07:56 53.04375 2.16335 38090 ft 440 kts 281°
2026-05-07 07:56 53.05568 2.06700 38089 ft 440 kts 282°
2026-05-07 07:57 53.06791 1.96744 38088 ft 440 kts 282°
2026-05-07 07:57 53.08002 1.86809 38096 ft 440 kts 282°
2026-05-07 07:58 53.09204 1.76873 38100 ft 441 kts 282°
2026-05-07 07:58 53.10402 1.66899 38091 ft 441 kts 282°
2026-05-07 07:59 53.11594 1.56931 38088 ft 442 kts 282°
2026-05-07 07:59 53.12775 1.46960 38088 ft 442 kts 282°
2026-05-07 08:00 53.13955 1.36920 38089 ft 442 kts 282°
2026-05-07 08:00 53.15118 1.26939 38091 ft 442 kts 281°
2026-05-07 08:01 53.16279 1.16909 38092 ft 442 kts 281°
2026-05-07 08:01 53.17426 1.06918 38093 ft 442 kts 281°
2026-05-07 08:02 53.18565 0.96911 38091 ft 442 kts 281°
2026-05-07 08:02 53.19703 0.86839 38090 ft 442 kts 281°
2026-05-07 08:03 53.20822 0.76849 38089 ft 442 kts 281°
2026-05-07 08:03 53.21936 0.66819 38089 ft 442 kts 281°
2026-05-07 08:04 53.23048 0.56726 38088 ft 442 kts 281°
2026-05-07 08:04 53.24144 0.46694 38086 ft 442 kts 281°
2026-05-07 08:05 53.25233 0.36663 38082 ft 441 kts 281°
2026-05-07 08:05 53.26317 0.26593 38079 ft 442 kts 280°
2026-05-07 08:06 53.27394 0.16495 38078 ft 442 kts 280°
2026-05-07 08:06 53.28457 0.06429 38076 ft 442 kts 280°
2026-05-07 08:07 53.29511 -0.03620 38074 ft 442 kts 280°
2026-05-07 08:07 53.30566 -0.13764 38095 ft 443 kts 280°
2026-05-07 08:08 53.31615 -0.23935 38103 ft 443 kts 280°
2026-05-07 08:08 53.32650 -0.34091 38081 ft 444 kts 280°
2026-05-07 08:09 53.33675 -0.44226 38073 ft 444 kts 280°
2026-05-07 08:09 53.34692 -0.54355 38072 ft 444 kts 280°
2026-05-07 08:10 53.35703 -0.64535 38072 ft 444 kts 280°
2026-05-07 08:10 53.36708 -0.74711 38072 ft 444 kts 279°
2026-05-07 08:11 53.37703 -0.84891 38071 ft 443 kts 279°
2026-05-07 08:11 53.38690 -0.95093 38070 ft 443 kts 279°
2026-05-07 08:12 53.39665 -1.05259 38066 ft 443 kts 279°
2026-05-07 08:12 53.40647 -1.15609 38061 ft 443 kts 279°
2026-05-07 08:13 53.41608 -1.25841 38055 ft 443 kts 279°
2026-05-07 08:13 53.42574 -1.36213 38049 ft 443 kts 279°
2026-05-07 08:14 53.43524 -1.46513 38044 ft 443 kts 279°
2026-05-07 08:14 53.44467 -1.56844 38040 ft 443 kts 279°
2026-05-07 08:15 53.45403 -1.67179 38037 ft 442 kts 278°
2026-05-07 08:15 53.46313 -1.77341 38036 ft 442 kts 278°
2026-05-07 08:16 53.47223 -1.87601 38036 ft 442 kts 278°
2026-05-07 08:16 53.48109 -1.97704 38036 ft 442 kts 278°
2026-05-07 08:17 53.48999 -2.07967 38038 ft 442 kts 278°
2026-05-07 08:17 53.49880 -2.18236 38042 ft 442 kts 278°
2026-05-07 08:18 53.50756 -2.28506 38051 ft 442 kts 278°
2026-05-07 08:18 53.51622 -2.38786 38054 ft 442 kts 278°
2026-05-07 08:19 53.52478 -2.49060 38055 ft 442 kts 278°
2026-05-07 08:19 53.53323 -2.59318 38054 ft 442 kts 278°
2026-05-07 08:20 53.54156 -2.69540 38051 ft 443 kts 278°
2026-05-07 08:20 53.54982 -2.79785 38047 ft 443 kts 278°
2026-05-07 08:21 53.55804 -2.90088 37590 ft 448 kts 278°
2026-05-07 08:21 53.56224 -2.95398 36983 ft 449 kts 278°
2026-05-07 08:21 53.56634 -3.00621 36385 ft 448 kts 278°
2026-05-07 08:21 53.57048 -3.05928 35747 ft 449 kts 278°
2026-05-07 08:22 53.57458 -3.11190 35128 ft 449 kts 278°
2026-05-07 08:22 53.57871 -3.16528 34509 ft 447 kts 278°
2026-05-07 08:22 53.58275 -3.21785 33977 ft 444 kts 278°
2026-05-07 08:22 53.58678 -3.27076 33455 ft 440 kts 278°
2026-05-07 08:23 53.59073 -3.32279 32905 ft 436 kts 278°
2026-05-07 08:23 53.59470 -3.37534 32288 ft 430 kts 278°
2026-05-07 08:23 53.59856 -3.42685 31750 ft 423 kts 278°
2026-05-07 08:23 53.60227 -3.47673 31256 ft 414 kts 278°
2026-05-07 08:24 53.60592 -3.52597 30800 ft 406 kts 278°
2026-05-07 08:24 53.60941 -3.57351 30393 ft 398 kts 278°
2026-05-07 08:24 53.61337 -3.62075 29965 ft 392 kts 281°
2026-05-07 08:24 53.61895 -3.66372 29559 ft 387 kts 285°
2026-05-07 08:25 53.62671 -3.70671 29131 ft 382 kts 289°
2026-05-07 08:25 53.63611 -3.74800 28706 ft 377 kts 291°
2026-05-07 08:25 53.64590 -3.78873 28279 ft 373 kts 292°
2026-05-07 08:25 53.65561 -3.82894 27852 ft 368 kts 292°
2026-05-07 08:26 53.67451 -3.90777 27003 ft 360 kts 292°
2026-05-07 08:26 53.68368 -3.94620 26590 ft 355 kts 292°
2026-05-07 08:26 53.69282 -3.98465 26174 ft 351 kts 292°
2026-05-07 08:27 53.70184 -4.02272 25765 ft 347 kts 292°
2026-05-07 08:27 53.71021 -4.06070 25354 ft 345 kts 287°
2026-05-07 08:27 53.71589 -4.09939 24949 ft 342 kts 280°
2026-05-07 08:27 53.71882 -4.13900 24539 ft 340 kts 275°
2026-05-07 08:28 53.72044 -4.17861 24142 ft 338 kts 274°
2026-05-07 08:28 53.72183 -4.21773 23746 ft 335 kts 274°
2026-05-07 08:28 53.72323 -4.25718 23342 ft 333 kts 274°
2026-05-07 08:28 53.72462 -4.29568 22945 ft 331 kts 274°
2026-05-07 08:29 53.72602 -4.33409 22555 ft 329 kts 274°
2026-05-07 08:29 53.72743 -4.37270 22166 ft 327 kts 274°
2026-05-07 08:29 53.72882 -4.41089 21777 ft 324 kts 274°
2026-05-07 08:29 53.73019 -4.44863 21392 ft 322 kts 274°
2026-05-07 08:30 53.73153 -4.48586 21009 ft 320 kts 274°
2026-05-07 08:30 53.73286 -4.52317 20624 ft 318 kts 274°
2026-05-07 08:30 53.73417 -4.56046 20237 ft 316 kts 274°
2026-05-07 08:30 53.73544 -4.59741 19852 ft 315 kts 273°
2026-05-07 08:31 53.73670 -4.63415 19472 ft 313 kts 273°
2026-05-07 08:31 53.73794 -4.67039 19097 ft 311 kts 272°
2026-05-07 08:31 53.73916 -4.70668 18724 ft 309 kts 272°
2026-05-07 08:31 53.74037 -4.74278 18353 ft 307 kts 272°
2026-05-07 08:32 53.74157 -4.77899 17981 ft 306 kts 272°
2026-05-07 08:32 53.74274 -4.81463 17614 ft 304 kts 272°
2026-05-07 08:32 53.74392 -4.84992 17243 ft 303 kts 272°
2026-05-07 08:32 53.74510 -4.88545 16859 ft 302 kts 271°
2026-05-07 08:33 53.74617 -4.92078 16484 ft 300 kts 271°
2026-05-07 08:33 53.74723 -4.95545 16119 ft 299 kts 271°
2026-05-07 08:33 53.74831 -4.99050 15750 ft 298 kts 271°
2026-05-07 08:33 53.74939 -5.02500 15387 ft 296 kts 271°
2026-05-07 08:34 53.75046 -5.05958 15023 ft 295 kts 271°
2026-05-07 08:34 53.75154 -5.09434 14658 ft 294 kts 271°
2026-05-07 08:34 53.75166 -5.12863 14292 ft 291 kts 263°
2026-05-07 08:34 53.74818 -5.16267 13901 ft 289 kts 253°
2026-05-07 08:35 53.74211 -5.19502 13494 ft 289 kts 250°
2026-05-07 08:35 53.73557 -5.22708 13119 ft 287 kts 250°
2026-05-07 08:35 53.72903 -5.25891 12749 ft 286 kts 250°
2026-05-07 08:35 53.72257 -5.29046 12383 ft 284 kts 250°
2026-05-07 08:36 53.71625 -5.32146 12024 ft 282 kts 250°
2026-05-07 08:36 53.70991 -5.35256 11664 ft 280 kts 250°
2026-05-07 08:36 53.70362 -5.38344 11306 ft 278 kts 250°
2026-05-07 08:36 53.69722 -5.41476 10942 ft 276 kts 250°
2026-05-07 08:37 53.69100 -5.44521 10588 ft 274 kts 250°
2026-05-07 08:37 53.68472 -5.47643 10220 ft 271 kts 252°
2026-05-07 08:37 53.68107 -5.50722 9875 ft 269 kts 263°
2026-05-07 08:37 53.68070 -5.53873 9832 ft 261 kts 270°
2026-05-07 08:38 53.68147 -5.57012 9627 ft 261 kts 271°
2026-05-07 08:38 53.68238 -5.60034 9361 ft 259 kts 271°
2026-05-07 08:38 53.68325 -5.63068 9095 ft 257 kts 269°
2026-05-07 08:38 53.68106 -5.65891 8812 ft 251 kts 246°
2026-05-07 08:39 53.67196 -5.68375 8518 ft 247 kts 227°
2026-05-07 08:39 53.66076 -5.70489 8247 ft 244 kts 226°
2026-05-07 08:39 53.64933 -5.72621 8010 ft 240 kts 226°
2026-05-07 08:39 53.63863 -5.74643 7973 ft 227 kts 227°
2026-05-07 08:40 53.62733 -5.76444 7971 ft 221 kts 215°
2026-05-07 08:40 53.61362 -5.77815 7637 ft 226 kts 206°
2026-05-07 08:40 53.59919 -5.78977 7220 ft 228 kts 205°
2026-05-07 08:40 53.58457 -5.80126 6867 ft 229 kts 205°
2026-05-07 08:41 53.57020 -5.81258 6547 ft 228 kts 205°
2026-05-07 08:41 53.55573 -5.82403 6233 ft 226 kts 205°
2026-05-07 08:41 53.54159 -5.83529 5930 ft 223 kts 205°
2026-05-07 08:41 53.52739 -5.84660 5629 ft 222 kts 204°
2026-05-07 08:42 53.51344 -5.85766 5333 ft 220 kts 204°
2026-05-07 08:42 53.49959 -5.86862 5041 ft 218 kts 204°
2026-05-07 08:42 53.48582 -5.87955 4752 ft 217 kts 205°
2026-05-07 08:42 53.47224 -5.89037 4466 ft 215 kts 205°
2026-05-07 08:43 53.45864 -5.90123 4183 ft 214 kts 205°
2026-05-07 08:43 53.44527 -5.91191 3901 ft 212 kts 205°
2026-05-07 08:43 53.43218 -5.92232 3621 ft 209 kts 205°
2026-05-07 08:43 53.41907 -5.93275 3337 ft 207 kts 208°
2026-05-07 08:44 53.40874 -5.94955 3054 ft 207 kts 243°
2026-05-07 08:44 53.40540 -5.97270 3018 ft 201 kts 263°
2026-05-07 08:44 53.40573 -5.99522 3008 ft 189 kts 272°
2026-05-07 08:44 53.40734 -6.01679 3009 ft 186 kts 273°
2026-05-07 08:45 53.40887 -6.03777 2860 ft 176 kts 272°
2026-05-07 08:45 53.41009 -6.05791 2596 ft 172 kts 270°
2026-05-07 08:45 53.41111 -6.07751 2337 ft 168 kts 270°
2026-05-07 08:45 53.41207 -6.09661 2093 ft 161 kts 270°
2026-05-07 08:46 53.41301 -6.11456 1870 ft 147 kts 270°
2026-05-07 08:46 53.41389 -6.13099 1661 ft 136 kts 270°
2026-05-07 08:46 53.41471 -6.14647 1494 ft 133 kts 270°
2026-05-07 08:46 53.41552 -6.16223 1327 ft 136 kts 270°
2026-05-07 08:47 53.41634 -6.17799 1150 ft 139 kts 271°
2026-05-07 08:47 53.41722 -6.19432 956 ft 141 kts 272°
2026-05-07 08:47 53.41811 -6.21079 757 ft 142 kts 272°
2026-05-07 08:47 53.41901 -6.22730 560 ft 144 kts 273°
2026-05-07 08:48 53.41992 -6.24403 366 ft 145 kts 273°
2026-05-07 08:48 53.42084 -6.26073 255 ft 134 kts 273°
2026-05-07 08:48 53.42154 -6.27436 248 ft 94 kts 275°
2026-05-07 08:48 53.42211 -6.28122 249 ft 27 kts 298°
2026-05-07 08:49 53.42318 -6.28317 249 ft 19 kts 351°
2026-05-07 08:49 53.42373 -6.28165 249 ft 18 kts 97°
2026-05-07 08:49 53.42358 -6.27948 249 ft 19 kts 96°
2026-05-07 08:49 53.42344 -6.27722 249 ft 19 kts 96°
2026-05-07 08:50 53.42331 -6.27492 249 ft 20 kts 94°
2026-05-07 08:50 53.42319 -6.27255 249 ft 20 kts 96°
2026-05-07 08:50 53.42301 -6.27016 249 ft 20 kts 96°
2026-05-07 08:50 53.42292 -6.26772 249 ft 21 kts 94°
2026-05-07 08:51 53.42279 -6.26524 249 ft 21 kts 95°
2026-05-07 08:51 53.42266 -6.26274 249 ft 21 kts 95°
2026-05-07 08:51 53.42252 -6.26024 249 ft 21 kts 95°
2026-05-07 08:51 53.42238 -6.25770 249 ft 22 kts 96°
2026-05-07 08:52 53.42224 -6.25515 249 ft 22 kts 96°
2026-05-07 08:52 53.42209 -6.25256 249 ft 22 kts 96°
2026-05-07 08:52 53.42220 -6.25037 249 ft 17 kts 64°
2026-05-07 08:52 53.42299 -6.24875 249 ft 18 kts 46°
2026-05-07 08:53 53.42390 -6.24719 249 ft 18 kts 51°
2026-05-07 08:53 53.42440 -6.24579 249 ft 4 kts 62°
2026-05-07 08:53 53.42453 -6.24526 249 ft 5 kts 86°
2026-05-07 08:53 53.42429 -6.24465 249 ft 7 kts 133°
2026-05-07 08:54 53.42414 -6.24441 249 ft 0 kts 136°
2026-05-07 08:54 53.42413 -6.24439 249 ft 0 kts 135°